Weather History for KIND - September, 2013

Change the Weather History Date:

Thursday, September 5, 2013

  Actual Average Record
Temperature  
Mean Temperature 75 °F 71 °F  
Max Temperature 87 °F 82 °F 100 °F (1954)
Min Temperature 62 °F 61 °F 45 °F (1974)
Degree Days  
Heating Degree Days 0 1  
Month to date heating degree days 0 1  
Since 1 July heating degree days 8 5  
Cooling Degree Days 10 7  
Month to date cooling degree days 40 36  
Year to date cooling degree days 999 957  
Growing Degree Days 24 (Base 50)    
Moisture  
Dew Point 58 °F    
Average Humidity 62    
Maximum Humidity 84    
Minimum Humidity 39    
Precipitation  
Precipitation 0.00 in 0.10 in 1.54 in (1910)
Month to date precipitation T 0.49  
Year to date precipitation 29.93 29.82  
Snow  
Snow 0.00 in 0.00 in 0.00 in ()
Month to date snowfall 0.0 0.0  
Since 1 July snowfall 0.0 0.0  
Since 1 September snowfall 0.0 0.0  
Snow Depth 0.00 in    
Sea Level Pressure  
Sea Level Pressure 30.16 in    
Wind  
Wind Speed 5 mph (NNW)    
Max Wind Speed 13 mph    
Max Gust Speed 21 mph    
Visibility 10 miles    
Events      
T = Trace of Precipitation, MM = Missing Value Source: NWS Daily Summary

Daily Weather History Graph

Daily Weather History Graph

Search for Another Location

Airport or City:

Trip Planner

Search our weather history database for the weather conditions in past years. The results will help you decide how hot, cold, wet, or windy it might be!

Date:

Astronomy

Sep. 05, 2013 Rise Set
Actual Time 7:17 AM EDT 8:09 PM EDT
Civil Twilight 6:49 AM EDT 8:37 PM EDT
Nautical Twilight 6:17 AM EDT 9:09 PM EDT
Astronomical Twilight 5:43 AM EDT 9:43 PM EDT
Moon 7:28 AM EDT (9/5) 8:01 PM EDT (9/5)
Length of Visible Light 13h 47m
Length of Day
12h 52m
New Moon, 0% of the Moon is Illuminated
Sep 5
New Moon
Sep 12
First Quarter
Sep 19
Full
Sep 26
Last Quarter
Oct 4
New

Hourly Weather History & Observations

Time (EDT) Temp. Heat Index Dew Point Humidity Pressure Visibility Wind Dir Wind Speed Gust Speed Precip Events Conditions
12:54 AM 66.0 °F - 57.9 °F 75% 30.12 in 10.0 mi WSW 6.9 mph - N/A   Clear
1:54 AM 64.0 °F - 57.9 °F 80% 30.12 in 10.0 mi WSW 5.8 mph - N/A   Clear
2:54 AM 63.0 °F - 57.0 °F 81% 30.13 in 10.0 mi WNW 5.8 mph - N/A   Clear
3:54 AM 64.0 °F - 57.9 °F 80% 30.14 in 10.0 mi West 3.5 mph - N/A   Partly Cloudy
4:54 AM 64.0 °F - 57.9 °F 80% 30.14 in 10.0 mi West 5.8 mph - N/A   Scattered Clouds
5:54 AM 63.0 °F - 57.9 °F 84% 30.14 in 10.0 mi West 5.8 mph - N/A   Scattered Clouds
6:54 AM 62.1 °F - 57.9 °F 86% 30.15 in 10.0 mi WSW 3.5 mph - N/A   Mostly Cloudy
7:54 AM 64.0 °F - 57.9 °F 80% 30.17 in 10.0 mi Calm Calm - N/A   Mostly Cloudy
8:54 AM 69.1 °F - 59.0 °F 70% 30.17 in 10.0 mi Calm Calm - N/A   Mostly Cloudy
9:54 AM 73.9 °F - 59.0 °F 59% 30.18 in 10.0 mi Calm Calm - N/A   Mostly Cloudy
10:54 AM 79.0 °F - 57.0 °F 47% 30.19 in 10.0 mi NNE 10.4 mph - N/A   Scattered Clouds
11:54 AM 80.1 °F 80.2 °F 55.9 °F 43% 30.19 in 10.0 mi NNE 8.1 mph - N/A   Scattered Clouds
12:54 PM 80.1 °F 80.4 °F 57.0 °F 45% 30.19 in 10.0 mi NNE 8.1 mph - N/A   Scattered Clouds
1:54 PM 82.0 °F 82.0 °F 57.9 °F 44% 30.18 in 10.0 mi Calm Calm - N/A   Scattered Clouds
2:54 PM 84.0 °F 83.5 °F 57.9 °F 41% 30.17 in 10.0 mi Calm Calm - N/A   Scattered Clouds
3:54 PM 87.1 °F 86.5 °F 59.0 °F 39% 30.15 in 10.0 mi Variable 3.5 mph - N/A   Scattered Clouds
4:54 PM 84.9 °F 84.4 °F 59.0 °F 41% 30.15 in 10.0 mi North 6.9 mph - N/A   Scattered Clouds
5:54 PM 84.0 °F 84.0 °F 60.1 °F 44% 30.14 in 10.0 mi NNW 5.8 mph - N/A   Scattered Clouds
6:54 PM 82.9 °F 83.2 °F 60.1 °F 46% 30.14 in 10.0 mi NNW 8.1 mph - N/A   Scattered Clouds
7:54 PM 81.0 °F 81.6 °F 60.1 °F 49% 30.14 in 10.0 mi North 9.2 mph - N/A   Scattered Clouds
8:54 PM 78.1 °F - 62.1 °F 58% 30.15 in 10.0 mi NNE 9.2 mph - N/A   Scattered Clouds
9:54 PM 75.9 °F - 60.1 °F 58% 30.16 in 10.0 mi NE 8.1 mph - N/A   Scattered Clouds
10:54 PM 73.9 °F - 57.9 °F 57% 30.17 in 10.0 mi NE 8.1 mph - N/A   Partly Cloudy
11:54 PM 72.0 °F - 55.9 °F 57% 30.18 in 10.0 mi NE 6.9 mph - N/A   Partly Cloudy